カタログに戻る

STARLINK-35184

運用中通信VLEO
NORAD 65506·PAYLOAD·🇺🇸 United States

打ち上げ Sep 5, 2025 から Cape Canaveral Space Force Station

Loading…

次のパス (今後24時間)

TLE

最新Source: CelesTrak SupGP

元期: Sep 14, 2026, 14:31 UTC

1 65506C 25198Q   26257.60534722  .00023645  00000+0  69825-3 0  2577
2 65506  53.1569 109.3171 0001109 122.0999 213.2173 15.34394634    10

AllMySatでSTARLINK-35184をリアルタイム追跡

Download on the App Store